When you browse on this site, cookies collect data to enhance your experience and personalize the content and advertising you see.
Visit our Privacy Policy to learn more. By continuing to use the site, you agree to this use of cookies and data.
  • en Suisse
  • Liste des pays
  • À 7 jours
  • Température de l'eau
  • Carte météo
  • Widgets météo
  • user-avatar
    Se connecter

    Météo par heure à Berne

    Ce jour, 5 Juin, Vendredi

    Heure Température Précipitation Vent Pression Humidité
    00:00 +10°C° 0 mm 2 m/s 704 mmHg 94%
    01:00 +10°C° 0.2 mm 2 m/s 704 mmHg 95%
    02:00 +11°C° 0.2 mm 1 m/s 703 mmHg 95%
    03:00 +11°C° 0.2 mm 1 m/s 703 mmHg 96%
    04:00 +10°C° 0.3 mm 2 m/s 703 mmHg 95%
    05:00 +10°C° 0.3 mm 2 m/s 703 mmHg 95%
    06:00 +12°C° 0 mm 2 m/s 704 mmHg 95%
    07:00 +11°C° 0.4 mm 3 m/s 704 mmHg 90%
    08:00 +12°C° 0.4 mm 4 m/s 704 mmHg 84%
    09:00 +13°C° 0.4 mm 5 m/s 704 mmHg 79%
    10:00 +14°C° 0.1 mm 5 m/s 705 mmHg 72%
    11:00 +15°C° 0.1 mm 6 m/s 705 mmHg 64%
    12:00 +16°C° 0 mm 6 m/s 705 mmHg 58%
    13:00 +15°C° 0.1 mm 6 m/s 705 mmHg 64%
    14:00 +14°C° 0.1 mm 6 m/s 705 mmHg 70%
    15:00 +13°C° 0.1 mm 6 m/s 706 mmHg 76%
    16:00 +13°C° 0.1 mm 6 m/s 706 mmHg 78%
    17:00 +13°C° 0.1 mm 5 m/s 706 mmHg 80%
    18:00 +12°C° 0.1 mm 4 m/s 706 mmHg 82%
    19:00 +12°C° 0.2 mm 4 m/s 706 mmHg 84%
    20:00 +12°C° 0.2 mm 4 m/s 707 mmHg 87%
    21:00 +12°C° 0.2 mm 3 m/s 707 mmHg 89%
    22:00 +12°C° 0.3 mm 3 m/s 707 mmHg 89%
    23:00 +12°C° 0.3 mm 3 m/s 707 mmHg 90%

    Demain, 6 Juin, Samedi

    Heure Température Précipitation Vent Pression Humidité
    00:00 +12°C° 0.3 mm 3 m/s 707 mmHg 90%
    01:00 +11°C° 0 mm 3 m/s 707 mmHg 90%
    02:00 +11°C° 0 mm 3 m/s 707 mmHg 90%
    03:00 +11°C° 0 mm 3 m/s 707 mmHg 91%
    04:00 +12°C° 0 mm 3 m/s 707 mmHg 88%
    05:00 +12°C° 0 mm 3 m/s 707 mmHg 85%
    06:00 +13°C° 0 mm 4 m/s 707 mmHg 82%
    07:00 +14°C° 0.1 mm 4 m/s 707 mmHg 80%
    08:00 +14°C° 0.1 mm 4 m/s 708 mmHg 79%
    09:00 +15°C° 0.1 mm 5 m/s 708 mmHg 77%
    10:00 +16°C° 0.1 mm 5 m/s 708 mmHg 72%
    11:00 +19°C° 0.1 mm 6 m/s 708 mmHg 67%
    12:00 +20°C° 0.1 mm 6 m/s 708 mmHg 62%
    13:00 +20°C° 0.2 mm 6 m/s 708 mmHg 63%
    14:00 +20°C° 0.2 mm 5 m/s 708 mmHg 65%
    15:00 +20°C° 0.2 mm 5 m/s 708 mmHg 67%
    16:00 +18°C° 0.4 mm 4 m/s 708 mmHg 74%
    17:00 +17°C° 0.4 mm 3 m/s 707 mmHg 82%
    18:00 +16°C° 0.4 mm 2 m/s 707 mmHg 90%
    19:00 +15°C° 0.6 mm 1 m/s 707 mmHg 92%
    20:00 +14°C° 0.6 mm 1 m/s 708 mmHg 94%
    21:00 +14°C° 0.6 mm 1 m/s 708 mmHg 97%
    22:00 +13°C° 0.5 mm 1 m/s 708 mmHg 97%
    23:00 +13°C° 0.5 mm 1 m/s 708 mmHg 97%

    Après-demain, 7 Juin, Dimanche

    Heure Température Précipitation Vent Pression Humidité
    00:00 +13°C° 0.5 mm 1 m/s 708 mmHg 97%
    01:00 +13°C° 0.7 mm 1 m/s 708 mmHg 97%
    02:00 +13°C° 0.7 mm 1 m/s 708 mmHg 97%
    03:00 +12°C° 0.7 mm 1 m/s 708 mmHg 97%
    04:00 +12°C° 1.2 mm 1 m/s 708 mmHg 97%
    05:00 +12°C° 1.2 mm 1 m/s 708 mmHg 97%
    06:00 +12°C° 1.2 mm 1 m/s 708 mmHg 98%
    07:00 +12°C° 0.8 mm 1 m/s 708 mmHg 97%
    08:00 +11°C° 0.8 mm 1 m/s 708 mmHg 97%
    09:00 +11°C° 0.8 mm 1 m/s 709 mmHg 96%
    10:00 +11°C° 0.3 mm 1 m/s 709 mmHg 96%
    11:00 +11°C° 0.3 mm 1 m/s 709 mmHg 95%
    12:00 +11°C° 0.3 mm 1 m/s 709 mmHg 94%
    13:00 +12°C° 0.1 mm 1 m/s 709 mmHg 92%
    14:00 +12°C° 0.1 mm 1 m/s 709 mmHg 89%
    15:00 +13°C° 0.1 mm 1 m/s 710 mmHg 86%
    16:00 +12°C° 0 mm 0 m/s 710 mmHg 86%
    17:00 +12°C° 0 mm 0 m/s 710 mmHg 85%
    18:00 +12°C° 0 mm 0 m/s 710 mmHg 85%
    19:00 +11°C° 0 mm 0 m/s 710 mmHg 88%
    20:00 +10°C° 0 mm 0 m/s 710 mmHg 90%
    21:00 +8°C° 0 mm 0 m/s 711 mmHg 93%
    22:00 +9°C° 0 mm 0 m/s 711 mmHg 93%
    23:00 +9°C° 0 mm 0 m/s 711 mmHg 92%

    8 Juin, Lundi

    Heure Température Précipitation Vent Pression Humidité
    00:00 +9°C° 0 mm 0 m/s 711 mmHg 92%
    01:00 +8°C° 0 mm 0 m/s 711 mmHg 92%
    02:00 +8°C° 0 mm 0 m/s 710 mmHg 93%
    03:00 +8°C° 0 mm 0 m/s 710 mmHg 93%
    04:00 +10°C° 0 mm 1 m/s 710 mmHg 91%
    05:00 +11°C° 0 mm 1 m/s 711 mmHg 89%
    06:00 +12°C° 0 mm 1 m/s 711 mmHg 87%
    07:00 +13°C° 0 mm 1 m/s 711 mmHg 79%
    08:00 +15°C° 0 mm 2 m/s 711 mmHg 71%
    09:00 +16°C° 0 mm 3 m/s 711 mmHg 63%
    10:00 +17°C° 0 mm 3 m/s 711 mmHg 61%
    11:00 +17°C° 0 mm 3 m/s 711 mmHg 59%
    12:00 +18°C° 0 mm 3 m/s 711 mmHg 57%
    13:00 +17°C° 0.5 mm 2 m/s 711 mmHg 65%
    14:00 +16°C° 0.5 mm 1 m/s 711 mmHg 72%
    15:00 +16°C° 0.5 mm 1 m/s 710 mmHg 79%
    16:00 +15°C° 0.4 mm 1 m/s 711 mmHg 84%
    17:00 +14°C° 0.4 mm 1 m/s 711 mmHg 88%
    18:00 +13°C° 0.4 mm 1 m/s 711 mmHg 93%
    19:00 +13°C° 0.1 mm 1 m/s 711 mmHg 94%
    20:00 +12°C° 0.1 mm 1 m/s 711 mmHg 94%
    21:00 +11°C° 0.1 mm 1 m/s 711 mmHg 95%
    22:00 +11°C° 0.3 mm 1 m/s 711 mmHg 95%
    23:00 +11°C° 0.3 mm 1 m/s 711 mmHg 95%

    9 Juin, Mardi

    Heure Température Précipitation Vent Pression Humidité
    00:00 +11°C° 0.3 mm 1 m/s 711 mmHg 96%
    01:00 +11°C° 0.2 mm 1 m/s 711 mmHg 96%
    02:00 +11°C° 0.2 mm 1 m/s 711 mmHg 96%
    03:00 +10°C° 0.2 mm 0 m/s 711 mmHg 96%
    04:00 +11°C° 0 mm 0 m/s 711 mmHg 95%
    05:00 +11°C° 0 mm 0 m/s 712 mmHg 94%
    06:00 +12°C° 0 mm 0 m/s 712 mmHg 93%
    07:00 +13°C° 0.3 mm 1 m/s 712 mmHg 94%
    08:00 +13°C° 0.3 mm 1 m/s 712 mmHg 94%
    09:00 +13°C° 0.3 mm 1 m/s 712 mmHg 95%
    10:00 +13°C° 0.5 mm 1 m/s 712 mmHg 95%
    11:00 +13°C° 0.5 mm 1 m/s 712 mmHg 96%
    12:00 +13°C° 0.5 mm 1 m/s 712 mmHg 96%
    13:00 +13°C° 0.1 mm 1 m/s 712 mmHg 95%
    14:00 +13°C° 0.1 mm 1 m/s 712 mmHg 94%
    15:00 +13°C° 0.1 mm 1 m/s 711 mmHg 93%
    16:00 +13°C° 0 mm 1 m/s 712 mmHg 94%
    17:00 +13°C° 0 mm 1 m/s 712 mmHg 95%
    18:00 +13°C° 0 mm 1 m/s 712 mmHg 95%
    19:00 +13°C° 0.1 mm 1 m/s 712 mmHg 96%
    20:00 +13°C° 0.1 mm 1 m/s 712 mmHg 97%
    21:00 +12°C° 0.1 mm 1 m/s 713 mmHg 97%
    22:00 +12°C° 0.5 mm 1 m/s 712 mmHg 98%
    23:00 +12°C° 0.5 mm 1 m/s 712 mmHg 98%

    10 Juin, Mercredi

    Heure Température Précipitation Vent Pression Humidité
    00:00 +12°C° 0.5 mm 1 m/s 712 mmHg 98%
    01:00 +11°C° 1.3 mm 0 m/s 712 mmHg 98%
    02:00 +11°C° 1.3 mm 0 m/s 712 mmHg 99%
    03:00 +11°C° 1.3 mm 0 m/s 712 mmHg 99%
    04:00 +11°C° 1.6 mm 0 m/s 712 mmHg 99%
    05:00 +11°C° 1.6 mm 0 m/s 712 mmHg 99%
    06:00 +11°C° 1.6 mm 0 m/s 712 mmHg 99%
    07:00 +12°C° 1 mm 0 m/s 712 mmHg 98%
    08:00 +12°C° 1 mm 0 m/s 712 mmHg 98%
    09:00 +13°C° 1 mm 1 m/s 712 mmHg 98%
    10:00 +13°C° 0.4 mm 1 m/s 712 mmHg 98%
    11:00 +13°C° 0.4 mm 1 m/s 712 mmHg 97%
    12:00 +14°C° 0.4 mm 2 m/s 712 mmHg 97%
    13:00 +14°C° 0.2 mm 2 m/s 713 mmHg 96%
    14:00 +14°C° 0.2 mm 2 m/s 713 mmHg 96%
    15:00 +14°C° 0.2 mm 2 m/s 713 mmHg 95%
    16:00 +14°C° 0.2 mm 2 m/s 713 mmHg 96%
    17:00 +13°C° 0.2 mm 2 m/s 713 mmHg 97%
    18:00 +13°C° 0.2 mm 1 m/s 713 mmHg 97%
    19:00 +13°C° 0.2 mm 1 m/s 714 mmHg 98%
    20:00 +13°C° 0.2 mm 1 m/s 714 mmHg 98%
    21:00 +13°C° 0.2 mm 1 m/s 714 mmHg 98%
    22:00 +13°C° 0.3 mm 1 m/s 714 mmHg 98%
    23:00 +13°C° 0.3 mm 1 m/s 714 mmHg 98%
    Voir plus